[[{"header":{"parameterUnit":"m.s-1","parameterCategory":1,"la1":30.2991,"la2":30.254,"lo1":-89.0895,"lo2":-89.0444,"dy":0.0017,"dx":0.0017,"nx":28,"ny":28,"refTime":"2025-08-28T03:00:00:Z","depth":0,"parameterNumber":2,"parameterNumberName":"U-component_of_WINDS"},"data":[0,0,0,0,0,0,0,0,0,0,0,0,0,0,0,0,0,0,0,0,0,0,0,0,0,0,0,0,0,0,0,0,0,0,0,0,0,0,0,0,0,0,0,0,0,0,0,0,0,0,0,0,0,0,0,0,0,0,-1.1528,-1.1527,0,-1.1476,-1.1475,-1.1474,-1.137,-1.1368,-1.1366,-1.1364,-1.1314,-1.1314,-1.1315,0,0,0,0,0,0,0,0,0,0,0,0,0,-1.154,-1.1541,-1.1528,-1.1527,-1.1526,-1.1476,-1.1475,-1.1474,-1.1371,-1.1368,-1.1366,-1.1363,-1.1314,-1.1314,-1.1315,0,0,0,0,0,0,0,0,0,0,0,0,0,-1.1516,-1.1541,-1.1528,-1.1469,-1.1463,-1.1476,-1.1475,-1.1474,-1.1371,-1.1368,-1.1365,-1.1362,-1.1313,-1.1314,-1.1315,-1.1382,0,0,-1.1318,-1.1318,0,0,0,0,0,0,0,0,-1.1518,-1.1516,-1.1478,-1.1473,-1.1466,-1.1426,-1.1461,-1.1443,-1.1372,-1.1406,-1.1364,-1.1361,-1.1354,-1.1351,-1.1348,-1.138,-1.1378,-1.1318,-1.1318,-1.1319,-1.1319,0,0,0,0,0,0,0,-1.152,-1.1518,-1.1507,-1.1477,-1.147,-1.1446,-1.1439,-1.1457,-1.1398,-1.1403,-1.1395,-1.139,-1.135,-1.1348,-1.1346,-1.1377,-1.1318,-1.1318,-1.1319,-1.1319,-1.1463,-1.1466,0,0,0,0,0,0,-1.153,-1.152,-1.1509,-1.1505,-1.1485,-1.1448,-1.144,-1.1442,-1.1398,-1.1388,-1.1393,-1.1386,-1.1348,-1.1345,-1.1344,-1.1421,-1.1319,-1.1319,-1.132,-1.146,-1.1464,-1.1467,0,0,0,0,0,0,-1.153,-1.153,-1.1511,-1.1511,-1.1506,-1.1451,-1.1454,-1.1443,-1.144,-1.139,-1.1379,-1.1401,-1.1345,-1.1343,-1.1374,-1.1418,-1.132,-1.1321,-1.1456,-1.1461,-1.1465,-1.1575,0,0,0,0,0,0,-1.1531,-1.153,-1.1555,-1.1512,-1.1507,-1.1541,-1.1457,-1.1444,-1.1442,-1.1432,-1.1395,-1.1386,-1.1343,-1.1373,-1.1375,-1.1417,-1.1321,-1.1451,-1.1458,-1.1464,-1.1567,-1.1583,-1.1597,0,0,0,0,0,-1.1532,-1.1588,-1.1556,-1.1556,-1.1536,-1.1543,-1.154,-1.1489,-1.1446,-1.147,-1.1438,-1.1387,-1.1413,-1.1377,-1.1378,-1.1422,-1.1448,-1.1456,-1.1463,-1.1561,-1.158,-1.1596,0,0,0,0,0,0,-1.1638,-1.1581,-1.1546,-1.1589,-1.1572,-1.1526,-1.1555,-1.1511,-1.1506,-1.1497,-1.1433,-1.1426,-1.1466,-1.1446,-1.1408,-1.1485,-1.1423,-1.1431,-1.1496,-1.1514,-1.1529,-1.1533,-1.1322,0,0,0,0,0,-1.1666,-1.1676,-1.1626,-1.167,-1.1663,-1.1611,-1.1612,-1.1574,-1.1554,-1.1546,-1.1516,-1.1499,-1.1503,-1.1508,-1.1509,-1.1564,-1.1555,-1.1594,-1.1609,-1.1621,-1.1629,-1.1659,-1.1676,-1.1491,-1.1491,-1.1491,0,0,-1.1725,-1.1695,-1.1706,-1.169,-1.1672,-1.1686,-1.1605,-1.1622,-1.1632,-1.1549,-1.1576,-1.1554,-1.1531,-1.1575,-1.1593,-1.156,-1.1679,-1.1631,-1.1641,-1.1642,-1.1668,-1.1686,-1.1701,-1.1497,-1.1496,-1.1495,0,0,-1.1839,-1.1817,-1.1851,-1.1835,-1.1809,-1.1774,-1.1782,-1.1743,-1.1725,-1.1751,-1.169,-1.1701,-1.1709,-1.1696,-1.169,-1.1801,-1.1754,-1.1803,-1.188,-1.1909,-1.1924,-1.1937,-1.1978,-1.1993,-1.1811,-1.1811,-1.1811,0,-1.1916,-1.1932,-1.1875,-1.1896,-1.1892,-1.1817,-1.1852,-1.1839,-1.1815,-1.1815,-1.1778,-1.1788,-1.1767,-1.1807,-1.1835,-1.1832,-1.1841,-1.1807,-1.1926,-1.1938,-1.1949,-1.1988,-1.2003,-1.1817,-1.1816,-1.1816,-1.1815,0,-1.2029,-1.2041,-1.2072,-1.205,-1.2049,-1.2078,-1.2026,-1.2032,-1.1994,-1.1964,-1.1992,-1.1965,-1.196,-1.1966,-1.193,-1.2002,-1.1983,-1.1938,-1.1874,-1.1974,-1.2009,-1.2023,-1.1826,-1.1824,-1.1822,-1.182,0,0,-1.2208,-1.2154,-1.2167,-1.2157,-1.2123,-1.2132,-1.2157,-1.2151,-1.2159,-1.2145,-1.2166,-1.2175,-1.2133,-1.2127,-1.2088,-1.2114,-1.2205,-1.2065,-1.2064,-1.2093,-1.2285,-1.2321,-1.2339,-1.2174,-1.2176,-1.2178,-1.2288,0,-1.2315,-1.2354,-1.2304,-1.2355,-1.2367,-1.2296,-1.2319,-1.2301,-1.2274,-1.2281,-1.225,-1.2258,-1.2202,-1.2198,-1.222,-1.2189,-1.2243,-1.2181,-1.2194,-1.2195,-1.2203,-1.2356,-1.2393,-1.2498,-1.2301,-1.2303,-1.2305,0,-1.2445,-1.2438,-1.249,-1.2454,-1.2457,-1.2478,-1.2469,-1.2476,-1.2455,-1.2433,-1.2427,-1.2381,-1.2405,-1.2342,-1.2375,-1.2334,-1.2336,-1.2323,-1.2325,-1.2326,-1.2257,-1.2362,-1.253,-1.2547,-1.2326,-1.2324,-1.2322,0,-1.2573,-1.2575,-1.2607,-1.26,-1.2559,-1.2575,-1.2559,-1.2535,-1.2535,-1.2528,-1.2528,-1.2524,-1.2523,-1.2522,-1.2476,-1.2434,-1.2515,-1.2449,-1.2499,-1.2501,-1.252,-1.252,-1.2692,-1.252,-1.252,-1.252,-1.252,0,-1.2698,-1.2733,-1.2664,-1.2683,-1.2721,-1.2664,-1.2703,-1.2679,-1.2659,-1.2674,-1.2613,-1.2629,-1.2567,-1.2577,-1.2541,-1.2575,-1.2574,-1.2559,-1.2549,-1.2565,-1.2567,-1.2566,-1.2558,-1.2524,-1.2523,-1.2522,-1.2522,0,-1.2847,-1.2801,-1.2832,-1.279,-1.278,-1.281,-1.2775,-1.2792,-1.2761,-1.2781,-1.2782,-1.2734,-1.2742,-1.2696,-1.2696,-1.2673,-1.2725,-1.2702,-1.2732,-1.2725,-1.2779,-1.2775,-1.2958,-1.298,-1.2793,-1.2795,-1.2796,0,-1.293,-1.2955,-1.2917,-1.2922,-1.2909,-1.2918,-1.2918,-1.2863,-1.2866,-1.2845,-1.2865,-1.2868,-1.2868,-1.2885,-1.285,-1.2851,-1.2828,-1.2892,-1.2828,-1.2844,-1.2831,-1.2831,-1.2834,-1.2906,-1.2909,-1.291,-1.2912,0,-1.3084,-1.306,-1.3062,-1.3057,-1.3059,-1.3052,-1.3042,-1.305,-1.299,-1.2997,-1.3004,-1.3004,-1.3004,-1.3009,-1.3002,-1.2987,-1.2941,-1.2932,-1.2944,-1.2961,-1.2978,-1.2971,-1.277,-1.2929,-1.2927,-1.2926,-1.2925,-1.2924,-1.3203,-1.3223,-1.3199,-1.3204,-1.319,-1.3182,-1.3197,-1.3167,-1.3172,-1.3168,-1.3135,-1.3149,-1.3129,-1.3115,-1.3105,-1.3116,-1.3085,-1.3102,-1.3107,-1.3112,-1.3123,-1.2976,-1.3114,-1.3114,-1.3113,-1.3113,-1.3112,0,-1.3355,-1.3336,-1.3341,-1.3328,-1.3333,-1.3287,-1.3274,-1.3281,-1.3294,-1.3278,-1.3279,-1.3289,-1.3294,-1.326,-1.326,-1.3276,-1.3255,-1.3278,-1.3277,-1.3274,-1.3149,-1.3139,-1.3295,-1.3295,-1.3295,-1.3295,-1.3295,-1.3295,-1.3434,-1.3466,-1.344,-1.3465,-1.3446,-1.3459,-1.3455,-1.3448,-1.3436,-1.3449,-1.3452,-1.343,-1.3408,-1.3406,-1.3409,-1.3399,-1.3403,-1.3434,-1.3417,-1.3301,-1.3283,-1.3266,-1.3257,-1.3435,-1.3435,-1.3541,-1.3542,-1.3543]},{"header":{"parameterUnit":"m.s-1","parameterCategory":1,"la1":30.2991,"la2":30.254,"lo1":-89.0895,"lo2":-89.0444,"dy":0.0017,"dx":0.0017,"nx":28,"ny":28,"refTime":"2025-08-28T03:00:00:Z","depth":0,"parameterNumber":3,"parameterNumberName":"V-component_of_WINDS"},"data":[0,0,0,0,0,0,0,0,0,0,0,0,0,0,0,0,0,0,0,0,0,0,0,0,0,0,0,0,0,0,0,0,0,0,0,0,0,0,0,0,0,0,0,0,0,0,0,0,0,0,0,0,0,0,0,0,0,0,2.3196,2.3195,0,2.3176,2.3176,2.3176,2.3185,2.3185,2.3186,2.3186,2.3161,2.316,2.3159,0,0,0,0,0,0,0,0,0,0,0,0,0,2.3235,2.3234,2.3196,2.3195,2.3195,2.3177,2.3176,2.3176,2.3185,2.3185,2.3186,2.3186,2.3162,2.316,2.3159,0,0,0,0,0,0,0,0,0,0,0,0,0,2.3217,2.3234,2.3196,2.3197,2.3197,2.3177,2.3176,2.3176,2.3184,2.3185,2.3186,2.3187,2.3162,2.316,2.3159,2.3134,0,0,2.3154,2.3153,0,0,0,0,0,0,0,0,2.3218,2.3215,2.3197,2.3197,2.3197,2.3184,2.3181,2.3162,2.3184,2.3189,2.3186,2.3187,2.3168,2.3166,2.316,2.3133,2.3131,2.3153,2.3152,2.3152,2.3151,0,0,0,0,0,0,0,2.3219,2.3216,2.3188,2.3197,2.3197,2.3197,2.3196,2.3177,2.3174,2.3189,2.3189,2.3187,2.3168,2.3162,2.316,2.3131,2.3154,2.3152,2.3151,2.315,2.3081,2.308,0,0,0,0,0,0,2.3221,2.3217,2.3188,2.3187,2.321,2.3196,2.3194,2.3187,2.3175,2.3174,2.3187,2.3188,2.3164,2.3162,2.3159,2.3128,2.3152,2.315,2.3149,2.3081,2.308,2.308,0,0,0,0,0,0,2.3222,2.3218,2.3189,2.3202,2.3199,2.3195,2.3187,2.3186,2.3181,2.3173,2.3172,2.3181,2.3165,2.3161,2.314,2.3127,2.3149,2.3148,2.3082,2.3081,2.308,2.3066,0,0,0,0,0,0,2.3223,2.3219,2.321,2.3202,2.3198,2.3172,2.3186,2.3186,2.3178,2.318,2.3168,2.3167,2.3165,2.3143,2.3138,2.3125,2.3147,2.3084,2.3082,2.308,2.3068,2.3064,2.3062,0,0,0,0,0,2.3224,2.3206,2.321,2.3206,2.3188,2.3171,2.3169,2.3169,2.3177,2.3168,2.3163,2.3167,2.313,2.314,2.3136,2.3122,2.3084,2.3082,2.3081,2.3069,2.3065,2.3062,0,0,0,0,0,0,2.321,2.3205,2.3209,2.3188,2.318,2.3173,2.3161,2.3165,2.3153,2.3155,2.3154,2.3151,2.3129,2.3124,2.3135,2.3096,2.3108,2.3105,2.3101,2.3097,2.3094,2.3095,2.3145,0,0,0,0,0,2.3205,2.3194,2.3189,2.3171,2.3167,2.3165,2.3158,2.3159,2.315,2.3146,2.314,2.313,2.3116,2.3106,2.3093,2.3067,2.3064,2.3056,2.3053,2.305,2.3047,2.3032,2.3028,2.3073,2.3073,2.3073,0,0,2.3194,2.3189,2.3182,2.3168,2.3162,2.3149,2.3162,2.3147,2.3137,2.3143,2.3123,2.3118,2.3107,2.3083,2.3072,2.3078,2.3034,2.3048,2.3046,2.3044,2.3029,2.3025,2.3021,2.3072,2.3072,2.3072,0,0,2.3166,2.3162,2.3146,2.314,2.3132,2.3131,2.3127,2.3119,2.3117,2.3097,2.3101,2.3088,2.3065,2.3056,2.3049,2.3018,2.3021,2.3014,2.2998,2.2983,2.2979,2.2976,2.2964,2.2959,2.3011,2.3011,2.3011,0,2.3152,2.3133,2.3137,2.3122,2.3115,2.3123,2.3106,2.31,2.3087,2.3081,2.3088,2.3058,2.3051,2.3025,2.3018,2.3012,2.3006,2.3014,2.298,2.2977,2.2974,2.2962,2.2957,2.301,2.301,2.301,2.301,0,2.3116,2.3103,2.3091,2.308,2.3072,2.3057,2.3056,2.3047,2.3049,2.3047,2.3026,2.3018,2.3003,2.2997,2.2998,2.2971,2.2974,2.2981,2.2992,2.2968,2.2957,2.2953,2.3009,2.3009,2.3009,2.301,0,0,2.3077,2.3069,2.3065,2.3059,2.3051,2.3041,2.3025,2.3012,2.3004,2.2995,2.298,2.296,2.2966,2.2958,2.2958,2.2945,2.292,2.2953,2.2953,2.2946,2.2888,2.2881,2.2876,2.2923,2.2922,2.2921,2.2888,0,2.3047,2.3021,2.3024,2.2998,2.2985,2.2993,2.2979,2.2971,2.2969,2.2956,2.2953,2.2938,2.2948,2.2943,2.2931,2.2926,2.2908,2.2929,2.2907,2.2906,2.2908,2.2871,2.2864,2.2833,2.2884,2.2883,2.2882,0,2.3008,2.3,2.2973,2.2967,2.2962,2.2949,2.2937,2.2926,2.2918,2.2917,2.2908,2.291,2.2892,2.2906,2.288,2.2894,2.2886,2.2882,2.288,2.2877,2.2891,2.2864,2.2823,2.2818,2.2876,2.2876,2.2877,0,2.298,2.2962,2.2944,2.294,2.2932,2.2923,2.2919,2.2912,2.2904,2.2893,2.2887,2.2874,2.2866,2.2855,2.2853,2.2864,2.2827,2.2841,2.2824,2.2824,2.2814,2.2814,2.2769,2.2812,2.2812,2.2812,2.2812,0,2.2946,2.2929,2.2931,2.292,2.29,2.2904,2.2884,2.2881,2.2874,2.2861,2.2867,2.2853,2.2853,2.2839,2.2838,2.2816,2.2813,2.281,2.2809,2.2808,2.2808,2.2801,2.2802,2.2811,2.2811,2.2811,2.2811,0,2.291,2.2912,2.2892,2.2887,2.2886,2.2872,2.2867,2.2855,2.2854,2.2837,2.2833,2.283,2.2814,2.2812,2.2793,2.2792,2.2765,2.2767,2.2768,2.2768,2.275,2.2751,2.2697,2.2689,2.2739,2.2739,2.2738,0,2.2887,2.2874,2.2869,2.2861,2.2857,2.2845,2.2837,2.284,2.2831,2.2821,2.281,2.2795,2.2783,2.2757,2.2752,2.2737,2.2738,2.272,2.2736,2.2735,2.2735,2.2735,2.2733,2.2716,2.2716,2.2716,2.2715,0,2.2845,2.2847,2.2836,2.2826,2.2817,2.2809,2.2801,2.2794,2.2795,2.2785,2.277,2.2761,2.2743,2.2727,2.2713,2.2707,2.271,2.2711,2.2706,2.2703,2.2704,2.2701,2.2758,2.2711,2.2712,2.2712,2.2712,2.2712,2.2813,2.2802,2.2797,2.2785,2.278,2.2772,2.2761,2.2759,2.2747,2.2733,2.2736,2.2718,2.2709,2.2691,2.2684,2.2669,2.2675,2.2668,2.2666,2.2663,2.2661,2.2708,2.2667,2.2667,2.2667,2.2667,2.2667,0,2.277,2.2767,2.2757,2.2746,2.2737,2.2744,2.2736,2.2726,2.2712,2.2704,2.2693,2.2675,2.266,2.2654,2.2639,2.2629,2.263,2.2624,2.2624,2.2622,2.2658,2.2663,2.2624,2.2624,2.2624,2.2624,2.2624,2.2624,2.2746,2.2727,2.2728,2.2707,2.2704,2.2688,2.2683,2.2675,2.2669,2.265,2.2638,2.2635,2.2628,2.2613,2.2599,2.2597,2.259,2.2584,2.2583,2.2615,2.262,2.2624,2.2629,2.2583,2.2583,2.2548,2.2548,2.2548]}]]